#timestamp,LO_Frequency,Hit,StdDev 
1536670815.5,286047004.1,Y
1536670835.3,286047000.4,P
1536670855.2,286046999.9,N
1536670875.0,286046998.5,N
1536670875.9,286046998.5,N
1536670895.8,286046998.8,N
1536670915.6,286047000.7,N
1536670935.4,286047002.3,N
1536670955.3,286047001.4,N
1536670975.1,286047004.0,N
1536670995.8,286047007.6,Y
1536671015.7,286047002.9,P
1536671035.5,286047005.6,P
1536671055.4,286047009.2,P
1536671075.2,286047008.8,N
1536671095.0,286047010.3,Y
1536671095.9,286047010.3,P
1536671115.8,286047002.9,N
1536671135.6,286047003.3,N
1536671155.5,286047005.9,N
1536671175.3,286047004.9,N
1536671195.1,286047006.5,N
1536671215.9,286047007.2,Y
1536671235.7,286047000.0,P
1536671255.5,286046999.8,N
1536671275.4,286047003.2,N
1536671295.2,286047004.7,N
1536671315.1,286047003.2,N
1536671316.0,286047003.2,N
1536671335.8,286047005.3,N
1536671355.6,286047003.6,N
1536671375.5,286047004.6,N
1536671395.3,286047008.4,Y
1536671445.2,286047006.7,E
1536671455.1,286047003.0,N
1536671456.0,286047003.0,P
1536671475.8,286047002.8,P
1536671495.7,286047001.6,Y
1536671515.5,286046998.9,P
1536671535.4,286047000.5,N
1536671555.2,286047000.5,N
1536671575.0,286047001.0,N
1536671575.9,286047001.0,N
1536671595.8,286047000.7,N
1536671615.6,286046999.9,N
1536671635.4,286047002.1,N
1536671685.3,286047003.2,E
1536671695.2,286047004.0,N
1536671715.1,286047002.0,P
1536671716.0,286047002.0,N
1536671735.8,286047002.9,Y
1536671755.6,286047000.0,P
1536671775.5,286046999.5,N
1536671795.3,286046997.3,N
1536671815.2,286046999.5,N
1536671835.9,286047000.5,N
1536671855.7,286047000.3,N
1536671875.6,286047000.6,N
1536671895.4,286047004.1,N
1536671915.2,286047003.9,N
1536671935.1,286047003.9,N
1536671936.0,286047003.9,N
1536671955.8,286047003.8,N
1536671975.7,286047003.7,N
1536671995.5,286047002.6,N
1536672015.3,286047002.2,N
1536672035.2,286047002.9,N
1536672055.0,286047003.6,N
1536672055.9,286047003.6,N
1536672075.8,286047003.1,N
1536672095.6,286047005.4,N
1536672115.4,286047004.5,N
1536672135.3,286047007.6,Y
1536672155.1,286047005.4,P
1536672175.8,286047005.6,P
1536672195.7,286047004.9,P
1536672215.5,286047009.1,Y
1536672235.4,286047006.0,P
1536672255.2,286047004.6,P
1536672275.0,286047004.9,P
1536672275.9,286047004.9,Y
1536672295.8,286047000.3,P
1536672315.6,286047000.3,N
1536672335.5,286047000.5,N
1536672355.3,286046999.9,N
1536672375.1,286047002.3,N
1536672425.9,286047002.1,E
1536672435.8,286047000.6,N
1536672455.7,286047000.9,P
1536672475.5,286047001.8,P
1536672495.3,286047004.3,Y
1536672515.2,286047002.2,P
1536672535.0,286047001.8,P
1536672535.9,286047001.8,P
1536672555.8,286047002.5,Y
1536672575.6,286047002.8,P
1536672595.4,286047000.1,N
1536672615.3,286047000.0,N
1536672635.1,286047001.9,N
1536672655.9,286047002.0,N
1536672675.7,286047004.3,Y
1536672695.5,286046999.9,P
1536672715.4,286047003.6,P
1536672735.2,286047004.4,N
1536672755.0,286047003.9,N
1536672755.9,286047003.9,N
1536672775.8,286047004.1,N
1536672795.6,286047001.6,N
1536672815.5,286047001.3,N
1536672835.3,286047004.2,N
1536672855.1,286047003.7,N
1536672875.9,286047003.3,N
1536672895.7,286047003.6,N
1536672915.5,286047003.4,N
1536672935.4,286047003.2,N
1536672955.2,286047003.6,N
1536672975.1,286047005.2,Y
1536672976.0,286047005.2,P
1536672995.8,286047004.0,P
1536673015.6,286047003.7,P
1536673035.5,286047003.5,Y
1536673055.3,286046998.5,P
1536673075.2,286047000.7,N
1536673095.9,286047002.7,N
1536673115.7,286047000.5,N
1536673135.6,286047002.1,N
1536673155.4,286047002.1,N
1536673175.2,286047002.5,N
1536673195.1,286047000.2,N
1536673196.0,286047000.2,N
1536673215.8,286047000.4,N
1536673235.7,286047000.3,N
1536673255.5,286047002.3,N
1536673275.3,286047001.7,N
1536673295.2,286047003.5,N
1536673315.0,286047006.0,Y
1536673315.9,286047006.0,P
1536673335.7,286047001.5,N
1536673355.6,286047000.1,N
1536673375.4,286047001.8,N
1536673395.3,286047002.2,N
1536673415.1,286047001.5,N
1536673416.0,286047001.5,N
1536673435.8,286047002.4,N
1536673455.7,286047001.7,N
1536673475.5,286047002.9,N
1536673495.3,286047003.9,N
1536673515.2,286047004.0,N
1536673535.0,286047004.4,Y
1536673535.9,286047004.4,P
1536673555.8,286047002.2,N
1536673575.6,286047003.9,P
1536673595.4,286047003.3,Y
1536673615.3,286047002.2,P
1536673635.1,286047002.9,P
1536673655.8,286047005.6,P
1536673675.7,286047003.0,N
1536673695.5,286047005.1,Y
1536673715.4,286047001.3,P
1536673735.2,286047000.1,N
1536673755.0,286046996.6,N
1536673755.9,286046996.6,N
1536673775.8,286046998.2,N
1536673795.6,286047000.6,N
1536673815.4,286047001.2,N
1536673835.3,286046998.6,N
1536673855.1,286046998.5,N
1536673875.9,286047001.2,N
1536673895.7,286046998.3,N
1536673915.5,286046998.3,N
1536673935.4,286047000.7,N
1536673955.2,286047002.8,N
1536673975.0,286046999.7,N
1536673975.9,286046999.7,N
1536673995.8,286046999.8,N
1536674015.6,286047000.5,N
1536674035.5,286047002.5,N
1536674055.3,286047000.1,N
1536674075.1,286047002.7,N
1536674095.9,286047001.7,N
1536674115.7,286047002.8,N
1536674135.5,286047003.6,N
1536674155.4,286047003.7,N
1536674175.2,286047003.7,N
1536674195.1,286047005.7,N
1536674196.0,286047005.7,N
1536674215.8,286047004.5,N
1536674235.6,286047005.4,N
1536674255.5,286047005.7,N
1536674305.3,286047007.5,E
1536674315.3,286047001.3,N
1536674335.1,286046999.1,P
1536674355.8,286046999.1,N
1536674375.7,286046996.5,Y
1536674395.5,286046999.2,P
